Thaicom 3

operational
NORAD ID: 24768 Int'l Des: 1997-016 Owner: SHINW Country: T
HEOCIRCULAR

About Thaicom 3

Description loading...

Live Position

Loading 3D Globe...

Upcoming Passes

Altitude History

Altitude vs Time

uPlot chart will show altitude changes over time

Two-Line Element Set

1 24768U 97016A 25338.39309420 -.00000195 00000-0 00000-0 0 9997
2 24768 12.7506 26.6135 0084066 45.3789 321.2249 0.98754915104021
Epoch: Dec 4, 2025 • Age: 36 hours

Current Status

Altitude 36466.4 km
Velocity 3.04 km/s
Sub-Earth Point 0.06°N, 170.78°E
Launch Date Apr 16, 1997
Age 28.6 years
Type other

Technical Details

Classification Payload
Mass 2650.00 kg
Dry Mass 1179.00 kg
Total Mass 2650.00 kg
Length 7.30 m
Diameter 2.30 m
Span 26.30 m
Shape Box + 2 Pan
Manufacturer AESPC
Bus Type Spacebus 3000
Phase Status In Orbit
Owner/State SHINW/T

Large Constellations

Loading constellations...